Regional Weather Roundup
Issued by NWS Charleston, SC

Home | Current Version | Previous Version | Text Only | Print | Product List | Glossary On
Versions: 1 2 3 4 5 6 7 8 9 10 11 12 13 14 15 16 17 18 19 20 21 22 23 24 25 26 27 28 29 30 31 32 33 34 35 36 37 38 39 40 41 42 43 44 45 46 47 48 49 50
000
ASUS42 KCHS 230212
RWRCHS

REGIONAL WEATHER ROUNDUP
NATIONAL WEATHER SERVICE CHARLESTON SC
1000 PM EDT FRI MAY 22 2015

NOTE: "FAIR" INDICATES FEW OR NO CLOUDS BELOW 12,000 FEET WITH NO
SIGNIFICANT WEATHER AND/OR OBSTRUCTIONS TO VISIBILITY.

NOT ALL STATIONS ARE QUALITY CONTROLLED BY THE NATIONAL
WEATHER SERVICE. USE DATA WITH CAUTION...ESPECIALLY
DEWPOINT OBSERVATIONS.

SCZ027-030-031-034>040-042>050-230300-
...SOUTHEAST SOUTH CAROLINA...

CITY           SKY/WX    TMP DP  RH WIND       PRES   REMARKS
N CHARLESTON   CLEAR     67  59  75 VRB6      30.23R
WATERFRONT PAR   N/A     71  63  75 E7        30.19R
MOUNT PLEASANT LGT RAIN  63  61  94 CALM      30.23R
JOHNS ISLAND   CLEAR     66  63  88 CALM      30.23R
PINOPOLIS        N/A     72  61  68 VRB3      30.14R
MONCKS CORNER  FAIR      68  61  77 CALM      30.23R
SUMMERVILLE    FAIR      63  61  94 CALM      30.24R
BEAUFORT MCAS  CLEAR     69  63  81 E5        30.23R
BEAUFORT ARPT  FAIR      64  63  94 CALM      30.22R
HILTON HEAD IS CLEAR     72  63  73 NE5       30.24R
WALTERBORO     CLEAR     63  55  77 CALM      30.23R
ALLENDALE      FAIR      66  57  72 CALM      30.22R

...SOUTHERN MIDLANDS AND PEE DEE...

CITY           SKY/WX    TMP DP  RH WIND       PRES   REMARKS
GEORGETOWN     NOT AVBL
KINGSTREE      NOT AVBL
ORANGEBURG     CLEAR     66  54  65 CALM      30.23R
BARNWELL       FAIR      68  54  60 CALM      30.24R
AIKEN          FAIR      63  48  59 NE3       30.28R
MANNING        FAIR      61  45  55 CALM      30.23R
COLUMBIA       CLEAR     72  47  40 N3        30.23R
SUMTER         CLEAR     64  50  61 NE6       30.23R
FLORENCE       CLEAR     65  52  62 CALM      30.24R
MYRTLE BEACH   CLEAR     66  57  72 E6        30.26R
N MYRTLE BEACH CLEAR     63  60  90 CALM      30.25R

$$

GAZ063-065-086>088-099>101-113>116-118-119-134>141-150-230300-
...SOUTHEAST GEORGIA...

CITY           SKY/WX    TMP DP  RH WIND       PRES   REMARKS
SAVANNAH ARPT  PTCLDY    69  61  75 E7        30.23R
HUNTER AAF     CLEAR     68  62  80 E3        30.20R
FORT STEWART   CLEAR     67  61  81 CALM      30.20R
STATESBORO     CLEAR     64  60  86 CALM      30.22R
SYLVANIA       CLEAR     67  60  77 E6        30.23R
CLAXTON        FAIR      68  63  83 CALM      30.22R

...CSRA...CENTRAL AND FAR SOUTHEAST GEORGIA...

CITY           SKY/WX    TMP DP  RH WIND       PRES   REMARKS
THOMSON        CLEAR     63  58  83 CALM      30.28R
AUGUSTA-BUSH   CLEAR     64  54  69 CALM      30.22R
AUGUSTA-DANIEL CLEAR     73  50  44 NE6       30.24R
SWAINSBORO     FAIR      72  57  60 NE3       30.22R
VIDALIA        PTCLDY    73  59  60 E5        30.22R
EASTMAN        FAIR      67  62  84 CALM      30.23R
HAZLEHURST     FAIR      74  64  71 SE5       30.20R
ALMA           CLEAR     71  63  75 E6        30.20R
WAYCROSS       CLEAR     71  65  80 E7        30.21R
JESUP          FAIR      70  64  83 CALM      30.22R
BAXLEY         FAIR      72  63  73 E3        30.21R
BRUNSWICK      CLEAR     68  61  77 NE3       30.22R
SAINT SIMONS   NOT AVBL

$$

SCZ027-028-034-036>038-045-046-048>050-GAZ119-141-230300-
...LAKE AND SUPPLEMENTAL COASTAL OBSERVATIONS...

STATION/POSITION TIME  TEMP    WIND        PRES    WAVE   SWELL
                       AIR SEA DIR/SP/G            HT/PER HT/PER/DIR
                 (UTC) (F)     (DEG/KT/KT) (MB)    (FT/S) (FT/S/D)
UPR LAKE MARION  NOT AVBL
WINYAH BAY       0045   69      70/  4     1022.0
LAKE MURRAY      0100   70      CALM  /  1 1022.7R
ACE BASIN NERRS  NOT AVBL
FORT PULASKI     0100   72 79   80/ 11/ 13 1023.1R
SAPELO ISLAND    0100   70      60/  4     1022.0S

$$

ANZ835-935-AMZ111-154-330-350-352-354-370-450-454-472-230300-
...C-MAN AND BUOY OBSERVATIONS...

STATION/POSITION TIME  TEMP    WIND        PRES    WAVE   SWELL
                       AIR SEA DIR/SP/G            HT/PER HT/PER/DIR
                 (UTC) (F)     (DEG/KT/KT) (MB)    (FT/S) (FT/S/D)
BUOY 41004       0150   72 76   60/ 14/ 16 1022.9R   3/ 6   2/ 6
BUOY 41008       0150   73 76   80/ 14/ 16 1022.9R   4/ 7   2/ 60/ 7
FOLLY BEACH CMAN 0200   71      90/  8/ 11 1023.8R
CAPERS NEARSHORE 0108   71     100/ 10/ 14 1023.2R
FRIPP NEARSHORE  0100   72      80/ 10/ 10 1022.4R


STATION/POSITION TIME  TEMP    WIND        PRES    WAVE   SWELL
                       AIR SEA DIR/SP/G            HT/PER HT/PER/DIR
                 (UTC) (F)     (DEG/KT/KT) (MB)    (FT/S) (FT/S/D)
5E ST. MARYS GA  0121      77                N/A     5/ 6
FRYING PAN BUOY  0150   71 74   70/ 10/ 12 1024.3R   2/ 6   2/ 60/ 6
BUOY 41025       0150   67 77   10/  6/  8 1024.4R   3/ 8   3/ 50/ 8
CAPE LOOKOUT NC  0100   67     100/  3/  4 1023.6R
BUOY 41002       0150   72 74   50/ 17/ 21 1021.8R   6/ 9   3/ 20/ 9
BUOY 41010       0120   80 81  360/  8/  8 1020.7R
ST AUGUSTINE FL  0200   74 75   40/ 14/ 15 1022.9R


$$



USA.gov is the U.S. government's official web portal to all federal, state and local government web resources and services.